Regional Weather Roundup
Issued by NWS

Home | Current Version | Previous Version | Graphics & Text | Print | Product List | Glossary On
Versions: 1 2 3 4 5 6 7 8 9 10 11 12 13 14 15 16 17 18 19 20 21 22 23 24 25 26 27 28 29 30 31 32 33 34 35 36 37 38 39 40 41 42 43 44 45 46 47 48 49 50
000
ASUS43 KBIS 171702
RWRND

NORTH DAKOTA REGIONAL WEATHER ROUNDUP
NATIONAL WEATHER SERVICE BISMARCK ND
1200 PM CDT TUE OCT 17 2017

NOTE: "FAIR" INDICATES FEW OR NO CLOUDS BELOW 12,000 FEET WITH NO
SIGNIFICANT WEATHER AND/OR OBSTRUCTIONS TO VISIBILITY.


NDZ001>003-009>011-017-171800-
NORTHWEST NORTH DAKOTA

CITY           SKY/WX    TMP DP  RH WIND       PRES   REMARKS
WILLISTON      SUNNY     61  34  36 S7        29.81F
MINOT          SUNNY     67  31  26 SW16      29.78F
MINOT AFB      SUNNY     67  31  26 W17G23    29.75F
$$

NDZ018>021-031>035-040>046-171800-
SOUTHWEST NORTH DAKOTA

CITY           SKY/WX    TMP DP  RH WIND       PRES   REMARKS
BISMARCK       SUNNY     68  32  26 SW12      29.89F
DICKINSON      SUNNY     66  29  24 W18       29.88F
GARRISON         N/A     64  36  35 SW10      29.83F
HETTINGER ARPT SUNNY     67  28  23 W15       29.96F
$$

NDZ004>008-012>016-024-026-027-054-171800-
NORTHEAST NORTH DAKOTA

CITY           SKY/WX    TMP DP  RH WIND       PRES   REMARKS
GRAND FORKS    MOSUNNY   66  39  37 S16       29.82F
GRND FRKS AFB  SUNNY     66  37  34 SW17      29.81F
DEVILS LAKE    SUNNY     61  37  41 SW12      29.81F
$$

NDZ022-023-025-028>030-036>039-047>053-171800-
SOUTHEAST NORTH DAKOTA

CITY           SKY/WX    TMP DP  RH WIND       PRES   REMARKS
FARGO          SUNNY     61  42  49 S14       29.90F
JAMESTOWN      SUNNY     69  33  26 SW12      29.86F
$$




USA.gov is the U.S. government's official web portal to all federal, state and local government web resources and services.